Notices

What's New in latest Release from April 7th, 2021:

- Updated Glossary, including Speed of Maximum Gust, and Total Hourly Precipitation

- Updated national and regional climate services offices contacts and prices information

- Addition of station inventory lists for 1981-2010, 1971-2000, and 1961-1990 Normals.

If you haven't already, please take our survey and provide feedback about our website: https://eccc.sondage-survey.ca/f/LanguageSelection.aspx?s=442ca660-fcf1-47c0-95a9-59707d6fd709

Hourly Data Report for July 03, 2018

OTTAWA INTL A
ONTARIO
Current Station Operator: NAVCAN

45°19'00.000" N
75°40'00.000" W
114.90 m
6106001
71628
YOW

Download Data

Hourly Data (July 2018)
Hourly Data Report for July 3, 2018
TIME
LST
Temp Definition
°C
Dew Point Definition
°C
Rel Hum Definition
%
Precip. Amount Definition
mm

Wind Dir Definition
10's deg

Wind Spd Definition
km/h
Visibility Definition
km
Stn Press Definition
kPa
Hmdx Definition


Wind Chill Definition


Weather Definition


00:00 23.0 21.2 89   27 14 24.1 100.39 32   LegendNANA
01:00 21.4 17.6 79   26 13 24.1 100.44 27   Mainly Clear
02:00 21.3 16.4 73   28 14 24.1 100.49 26   LegendNANA
03:00 20.1 15.8 76   27 12 24.1 100.51 25   LegendNANA
04:00 18.1 15.5 85   24 8 24.1 100.59     Mainly Clear
05:00 17.6 15.6 87   25 9 24.1 100.70     LegendNANA
06:00 20.9 16.1 74   28 14 24.1 100.78 26   LegendNANA
07:00 22.4 16.5 69   29 14 24.1 100.84 27   Clear
08:00 24.0 16.8 63   33 10 24.1 100.88 29   LegendNANA
09:00 25.7 17.1 59   35 5 24.1 100.93 31   LegendNANA
10:00 27.2 17.6 55   31 8 24.1 100.96 33   Clear
11:00 29.0 15.9 45   28 7 24.1 100.97 34   LegendNANA
12:00 29.8 15.9 42   28 8 24.1 100.98 34   LegendNANA
13:00 31.0 14.3 36   27 14 24.1 100.96 35   Clear
14:00 31.8 12.2 30   23 11 24.1 100.94 34   LegendNANA
15:00 33.0 12.5 28   26 12 24.1 100.96 36   LegendNANA
16:00 32.6 11.8 28   28 13 24.1 100.96 35   Clear
17:00 32.4 12.3 29   28 13 24.1 100.99 35   LegendNANA
18:00 31.6 12.4 30   28 14 24.1 100.97 34   LegendNANA
19:00 30.1 13.5 36   27 10 24.1 100.97 33   Mainly Clear
20:00 27.9 13.6 41   30 9 24.1 100.99 31   LegendNANA
21:00 24.8 13.9 50   0 1 24.1 101.05 28   LegendNANA
22:00 22.3 14.5 61   20 5 24.1 101.07 26   Clear
23:00 19.7 14.4 71   18 5 24.1 101.06     LegendNANA

Notes on Data Quality.

Legend

  • E = Estimated
  • M = Missing
  • NA = Not Available*
  • [empty] = Indicates an unobserved value
Date modified: